Simultaneous Nadir Overpasses (SNOs) Predictions

Prediction of SNOs between LANDSAT-8 and NOAA-19 Satellite Orbit:

Table of predicted SNOs for the next 14.0 days since TLE Epoch: 12/8/2018
Index Date (LANDSAT-8) Time (LANDSAT-8) Lat,Lon (LANDSAT-8) SZA (LANDSAT-8 ) Date (NOAA-19) Time (NOAA-19) Lat,Lon (NOAA-19) SZA (NOAA-19 ) Distance(km) Time Diff (sec)
1 12/08/2018 12:10:47 78.27, 14.10 101.53 12/08/2018 12:09:43 78.24, 14.09 101.49 2.91 64
2 12/08/2018 13:00:15 -78.24,-178.41 78.51 12/08/2018 13:00:37 -78.21,-178.40 78.54 3.76 22
3 12/10/2018 17:44:23 -78.63, 112.49 77.83 12/10/2018 17:43:20 -78.68, 107.95 78.05 99.49 63
4 12/10/2018 18:33:58 78.23, -81.88 101.68 12/10/2018 18:34:14 78.25, -81.96 101.69 2.52 16
5 12/13/2018 00:07:42 -78.25, 14.77 78.15 12/13/2018 00:07:39 -78.26, 14.68 78.14 2.48 3
6 12/15/2018 05:41:25 78.23, 111.28 101.96 12/15/2018 05:41:15 78.26, 111.37 101.99 3.38 10
7 12/15/2018 06:30:54 -78.17, -81.42 78.13 12/15/2018 06:32:06 -78.12, -80.53 78.10 20.98 72
8 12/17/2018 11:15:09 -78.25,-152.07 77.94 12/17/2018 11:14:40 -78.28,-152.03 77.92 2.94 29
9 12/17/2018 12:04:35 78.24, 15.49 102.04 12/17/2018 12:05:45 78.23, 15.50 102.06 0.65 70
10 12/19/2018 16:48:51 78.28, -55.38 102.14 12/19/2018 16:48:16 78.28, -55.35 102.13 0.77 35
11 12/19/2018 17:38:19 -78.25, 112.15 77.90 12/19/2018 17:39:10 -78.25, 112.10 77.89 1.24 51
12 12/21/2018 22:22:35 -78.29, 41.28 77.84 12/21/2018 22:21:41 -78.30, 41.26 77.85 0.36 54




NCC Satellite Simultaneous Nadir Overpasses (SNOs) Prediction Service
